{"data":{"norad_id":57067,"intl_designator":"2023-088V","name":"STARLINK-5824","alt_names":[],"object_type":"PAYLOAD","status":"ACTIVE","operator":null,"country":"US","launch_date":"2023-06-22","launch_site_code":"AFWTR","launch_vehicle":null,"mission":null,"orbit_class":"UNKNOWN","rcs_meters":null,"size_class":null,"mass_kg":null,"dimensions":null,"purposes":["comms"],"wikipedia_slug":null,"has_3d_model":false,"image_url":null,"decayed_at":null,"tle_current":{"epoch":"2026-09-19T21:39:36.698112Z","epoch_age_seconds":172596,"freshness":"FRESH","line1":"1 57067U 23088V   26262.90250808 -.00000383  00000+0 -44240-5 0  9990","line2":"2 57067  43.0007  93.9250 0000693 257.2458 102.8316 15.27573561180035","mean_motion":15.27573561,"eccentricity":6.93e-5,"inclination_deg":43.0007,"raan_deg":93.925,"arg_perigee_deg":257.2458,"mean_anomaly_deg":102.8316,"bstar":-4.424e-6,"rev_number":18003,"period_min":94.267146065118,"perigee_km":482.59289525718,"apogee_km":483.54385832241,"semimajor_km":6861.2053767898,"source":"CELESTRAK","updated_at":"2026-09-21T09:00:33.551940Z"}}}